This demonstration page uses our WeatherBlox Daily Observations layout. Learn more.

Left ArrowRight Arrow

Hourly Observations for May 5, 2016

Temp ( °F °C ) Dew Point ( °F °C ) Humidity (%) Winds ( mph kmh ) Pressure ( in mb ) Visibility ( mi km ) Precip ( " mm )
12:51 am 00:51 Clear 70 21.1 24 -4.4 18 18 E 7 11 29.83 1010 10 16 0.00 0.00
1:51 am 01:51 Clear 69 20.6 23 -5 17 17 E 10 17 29.80 1009 10 16 0.00 0.00
2:51 am 02:51 Clear 72 22.2 23 -5 16 16 E 12 19 29.79 1009 10 16 0.00 0.00
3:51 am 03:51 Clear 74 23.3 22 -5.6 14 14 E 17 28 29.78 1009 10 16 0.00 0.00
4:51 am 04:51 Clear 74 23.3 22 -5.6 14 14 E 15 24 29.78 1008 10 16 0.00 0.00
5:51 am 05:51 Sunny 69 20.6 24 -4.4 18 18 ESE 10 17 29.80 1009 10 16 0.00 0.00
6:51 am 06:51 Sunny 73 22.8 24 -4.4 16 16 ESE 12 19 29.83 1010 10 16 0.00 0.00
7:51 am 07:51 Sunny 74 23.3 25 -3.9 16 16 S 9 15 29.85 1011 10 16 0.00 0.00
8:51 am 08:51 Sunny 80 26.7 23 -5 12 12 SE 12 19 29.83 1010 10 16 0.00 0.00
9:51 am 09:51 Sunny 83 28.3 24 -4.4 11 11 SE 10 17 29.83 1010 10 16 0.00 0.00
10:51 am 10:51 Sunny 87 30.6 27 -2.8 11 11 ESE 9 15 29.79 1009 10 16 0.00 0.00
11:51 am 11:51 Sunny 91 32.8 29 -1.7 11 11 S 18 30 29.76 1008 10 16 0.00 0.00
12:51 pm 12:51 Sunny 93 33.9 30 -1.1 10 10 SSE 9 15 29.71 1006 10 16 0.00 0.00
1:51 pm 13:51 Sunny 96 35.6 30 -1.1 10 10 SSE 20 31 29.67 1005 10 16 0.00 0.00
2:51 pm 14:51 Sunny 96 35.6 25 -3.9 8 8 SSW 17 28 29.63 1003 10 16 0.00 0.00
3:06 pm 15:06 Sunny 96 35.6 24 -4.4 7 7 SSW 22 35 29.50 999 10 16 0.00 0.00
3:51 pm 15:51 Sunny 94 34.4 21 -6.1 7 7 SSW 20 31 29.60 1003 10 16 0.00 0.00
4:51 pm 16:51 Sunny 94 34.4 12 -11.1 5 5 SSW 21 33 29.59 1002 10 16 0.00 0.00
5:51 pm 17:51 Sunny 92 33.3 7 -13.9 4 4 SSW 21 33 29.58 1002 10 16 0.00 0.00
6:51 pm 18:51 Sunny 87 30.6 8 -13.3 5 5 SW 8 13 29.60 1002 10 16 0.00 0.00
7:51 pm 19:51 Clear 80 26.7 7 -13.9 6 6 ENE 3 6 29.61 1003 10 16 0.00 0.00
8:51 pm 20:51 Clear 79 26.1 5 -15 6 6 ESE 10 17 29.62 1003 10 16 0.00 0.00
9:51 pm 21:51 Clear 78 25.6 7 -13.9 6 6 SSE 13 20 29.62 1003 10 16 0.00 0.00
10:51 pm 22:51 Clear 77 25 9 -12.8 7 7 SSE 12 19 29.64 1004 10 16 0.00 0.00
11:51 pm 23:51 Clear 72 22.2 10 -12.2 9 9 SE 12 19 29.63 1004 10 16 0.00 0.00

Powered by AerisWeather